Location: Newark
(50.4348°N, 30.5552°E)
Time: 00:23:53
(UTC+00:00)

Tiros 1 despin weight - Pass Details

Date: 24 January 2020
Orbit: 594 x 642 km, 48.2° (Epoch: 20 February)

Event Time Altitude Azimuth Distance (km) Brightness Sun altitude
Rises 09:26:27 0° 212° (SSW) 2,856 ? 19.6°
Reaches altitude 10° 09:29:06 10° 197° (SSW) 1,964 ? 19.7°
Maximum altitude 09:32:37 23° 146° (SE) 1,332 ? 19.8°
Drops below altitude 10° 09:36:12 10° 95° (E) 1,996 ? 19.9°
Sets 09:38:55 0° 80° (E) 2,915 ? 19.9°
